Weather History for KCHK - January, 2014

Change the Weather History Date:

Saturday, January 11, 2014

  Actual Average Record
Temperature  
Mean Temperature 46 °F -  
Max Temperature 62 °F 44 °F 71 °F (1990)
Min Temperature 30 °F 24 °F 2 °F (1962)
Degree Days  
Heating Degree Days 19    
Moisture  
Dew Point 27 °F    
Average Humidity 55    
Maximum Humidity 87    
Minimum Humidity 30    
Precipitation  
Precipitation 0.00 in - - ()
Sea Level Pressure  
Sea Level Pressure 29.99 in    
Wind  
Wind Speed 8 mph (West)    
Max Wind Speed 17 mph    
Max Gust Speed 24 mph    
Visibility 10 miles    
Events      
Averages and records for this station are not official NWS values.
T = Trace of Precipitation, MM = Missing Value Source: NWS Daily Summary

Daily Weather History Graph

Daily Weather History Graph

Search for Another Location

Airport or City:

Trip Planner

Search our weather history database for the weather conditions in past years. The results will help you decide how hot, cold, wet, or windy it might be!

Date:

Astronomy

Jan. 11, 2014 Rise Set
Actual Time 7:40 AM CST 5:39 PM CST
Civil Twilight 7:12 AM CST 6:07 PM CST
Nautical Twilight 6:41 AM CST 6:38 PM CST
Astronomical Twilight 6:10 AM CST 7:09 PM CST
Moon 2:23 PM CST (1/11) 3:48 AM CST (1/11)
Length of Visible Light 10h 54m
Length of Day
9h 59m
Waxing Gibbous, 83% of the Moon is Illuminated
Jan 11
Waxing Gibbous
Jan 15
Full
Jan 23
Last Quarter
Jan 30
New
Feb 6
First Quarter

Hourly Weather History & Observations

Time (CST) Temp. Windchill Dew Point Humidity Pressure Visibility Wind Dir Wind Speed Gust Speed Precip Events Conditions
12:15 AM 33.8 °F 28.6 °F 28.4 °F 81% 29.84 in 10.0 mi West 5.8 mph - N/A   Clear
12:35 AM 33.8 °F 27.7 °F 28.4 °F 81% 29.84 in 10.0 mi WNW 6.9 mph - N/A   Scattered Clouds
12:55 AM 32.0 °F - 26.6 °F 80% 29.86 in 10.0 mi Calm Calm - N/A   Clear
1:15 AM 32.0 °F 26.4 °F 26.6 °F 80% 29.86 in 10.0 mi West 5.8 mph - N/A   Clear
1:35 AM 32.0 °F 25.6 °F 28.4 °F 87% 29.87 in 10.0 mi West 6.9 mph - N/A   Clear
1:55 AM 32.0 °F 25.6 °F 26.6 °F 80% 29.88 in 10.0 mi West 6.9 mph - N/A   Clear
2:15 AM 30.2 °F 22.6 °F 26.6 °F 86% 29.89 in 10.0 mi WNW 8.1 mph - N/A   Clear
2:35 AM 32.0 °F 24.2 °F 26.6 °F 80% 29.90 in 10.0 mi WNW 9.2 mph - N/A   Clear
2:55 AM 32.0 °F 23.6 °F 24.8 °F 75% 29.91 in 10.0 mi West 10.4 mph - N/A   Clear
3:15 AM 32.0 °F 23.6 °F 26.6 °F 80% 29.92 in 10.0 mi West 10.4 mph - N/A   Clear
3:35 AM 32.0 °F 24.2 °F 26.6 °F 80% 29.93 in 10.0 mi West 9.2 mph - N/A   Clear
3:55 AM 30.2 °F 21.9 °F 24.8 °F 80% 29.93 in 10.0 mi West 9.2 mph - N/A   Clear
4:15 AM 30.2 °F 21.3 °F 24.8 °F 80% 29.94 in 10.0 mi West 10.4 mph - N/A   Clear
4:35 AM 30.2 °F 22.6 °F 23.0 °F 75% 29.94 in 10.0 mi West 8.1 mph - N/A   Clear
4:55 AM 30.2 °F 21.9 °F 23.0 °F 75% 29.94 in 10.0 mi West 9.2 mph - N/A   Clear
5:15 AM 30.2 °F 22.6 °F 23.0 °F 75% 29.95 in 10.0 mi West 8.1 mph - N/A   Clear
5:35 AM 30.2 °F 23.4 °F 23.0 °F 75% 29.96 in 10.0 mi West 6.9 mph - N/A   Clear
5:55 AM 30.2 °F 22.6 °F 23.0 °F 75% 29.96 in 10.0 mi West 8.1 mph - N/A   Clear
6:15 AM 30.2 °F 21.3 °F 23.0 °F 75% 29.97 in 10.0 mi West 10.4 mph - N/A   Clear
6:35 AM 32.0 °F 23.0 °F 23.0 °F 69% 29.98 in 10.0 mi West 11.5 mph - N/A   Clear
6:55 AM 32.0 °F 23.0 °F 23.0 °F 69% 29.98 in 10.0 mi West 11.5 mph - N/A   Clear
7:15 AM 32.0 °F 23.6 °F 23.0 °F 69% 29.99 in 10.0 mi West 10.4 mph - N/A   Clear
7:35 AM 32.0 °F 24.8 °F 23.0 °F 69% 30.00 in 10.0 mi West 8.1 mph - N/A   Scattered Clouds
7:55 AM 30.2 °F 23.4 °F 23.0 °F 75% 30.01 in 10.0 mi WSW 6.9 mph - N/A   Clear
8:15 AM 32.0 °F 26.4 °F 24.8 °F 75% 30.02 in 10.0 mi West 5.8 mph - N/A   Clear
8:35 AM 33.8 °F 27.7 °F 26.6 °F 75% 30.03 in 10.0 mi West 6.9 mph - N/A   Clear
8:55 AM 33.8 °F 26.4 °F 26.6 °F 75% 30.03 in 10.0 mi West 9.2 mph - N/A   Clear
9:15 AM 35.6 °F 28.0 °F 26.6 °F 70% 30.04 in 10.0 mi West 10.4 mph - N/A   Clear
9:35 AM 37.4 °F 30.8 °F 28.4 °F 70% 30.05 in 10.0 mi West 9.2 mph - N/A   Clear
9:55 AM 41.0 °F 34.3 °F 28.4 °F 61% 30.06 in 10.0 mi WNW 11.5 mph - N/A   Clear
10:15 AM 46.4 °F 40.7 °F 30.2 °F 53% 30.06 in 10.0 mi West 12.7 mph - N/A   Clear
10:35 AM 48.2 °F - 30.2 °F 50% 30.07 in 10.0 mi West 11.5 mph - N/A   Clear
10:55 AM 51.8 °F - 30.2 °F 44% 30.07 in 10.0 mi WNW 12.7 mph - N/A   Clear
11:15 AM 53.6 °F - 28.4 °F 38% 30.07 in 10.0 mi West 16.1 mph - N/A   Clear
11:35 AM 55.4 °F - 30.2 °F 38% 30.06 in 10.0 mi WNW 13.8 mph - N/A   Clear
11:55 AM 55.4 °F - 30.2 °F 38% 30.06 in 10.0 mi WNW 15.0 mph 20.7 mph N/A   Clear
12:15 PM 59.0 °F - 30.2 °F 34% 30.04 in 10.0 mi NW 16.1 mph 19.6 mph N/A   Clear
12:35 PM 59.0 °F - 30.2 °F 34% 30.04 in 10.0 mi NW 16.1 mph 20.7 mph N/A   Clear
12:55 PM 60.8 °F - 30.2 °F 31% 30.04 in 10.0 mi NW 12.7 mph 21.9 mph N/A   Clear
1:15 PM 60.8 °F - 30.2 °F 31% 30.03 in 10.0 mi WNW 17.3 mph 21.9 mph N/A   Clear
1:35 PM 60.8 °F - 30.2 °F 31% 30.04 in 10.0 mi WNW 13.8 mph - N/A   Clear
1:55 PM 60.8 °F - 30.2 °F 31% 30.03 in 10.0 mi NW 16.1 mph 24.2 mph N/A   Clear
2:15 PM 60.8 °F - 30.2 °F 31% 30.03 in 10.0 mi NW 17.3 mph 21.9 mph N/A   Clear
2:35 PM 62.6 °F - 30.2 °F 30% 30.03 in 10.0 mi NW 12.7 mph - N/A   Clear
2:55 PM 62.6 °F - 30.2 °F 30% 30.03 in 10.0 mi WNW 13.8 mph - N/A   Clear
3:15 PM 62.6 °F - 30.2 °F 30% 30.02 in 10.0 mi WNW 11.5 mph - N/A   Clear
3:35 PM 62.6 °F - 30.2 °F 30% 30.02 in 10.0 mi West 10.4 mph - N/A   Clear
3:55 PM 62.6 °F - 30.2 °F 30% 30.02 in 10.0 mi NW 12.7 mph - N/A   Clear
4:15 PM 62.6 °F - 30.2 °F 30% 30.02 in 10.0 mi West 10.4 mph - N/A   Clear
4:35 PM 60.8 °F - 30.2 °F 31% 30.02 in 10.0 mi West 9.2 mph - N/A   Clear
4:55 PM 60.8 °F - 30.2 °F 31% 30.02 in 10.0 mi West 8.1 mph - N/A   Clear
5:15 PM 59.0 °F - 30.2 °F 34% 30.02 in 10.0 mi West 4.6 mph - N/A   Clear
5:35 PM 55.4 °F - 28.4 °F 36% 30.02 in 10.0 mi WSW 3.5 mph - N/A   Clear
5:55 PM 53.6 °F - 28.4 °F 38% 30.02 in 10.0 mi SW 3.5 mph - N/A   Clear
6:15 PM 53.6 °F - 28.4 °F 38% 30.01 in 10.0 mi SW 4.6 mph - N/A   Clear
6:35 PM 51.8 °F - 26.6 °F 38% 30.01 in 10.0 mi South 4.6 mph - N/A   Clear
6:55 PM 51.8 °F - 26.6 °F 38% 30.02 in 10.0 mi South 5.8 mph - N/A   Clear
7:15 PM 48.2 °F - 26.6 °F 43% 30.02 in 10.0 mi South 4.6 mph - N/A   Clear
7:35 PM 48.2 °F - 28.4 °F 46% 30.02 in 10.0 mi South 4.6 mph - N/A   Clear
7:55 PM 46.4 °F 43.5 °F 26.6 °F 46% 30.02 in 10.0 mi SSW 5.8 mph - N/A   Clear
8:15 PM 42.8 °F 39.3 °F 24.8 °F 49% 30.02 in 10.0 mi South 5.8 mph - N/A   Clear
8:35 PM 44.6 °F 40.2 °F 26.6 °F 49% 30.02 in 10.0 mi South 8.1 mph - N/A   Clear
8:55 PM 42.8 °F 38.6 °F 24.8 °F 49% 30.02 in 10.0 mi South 6.9 mph - N/A   Clear
9:15 PM 42.8 °F 38.0 °F 24.8 °F 49% 30.01 in 10.0 mi South 8.1 mph - N/A   Clear
9:35 PM 42.8 °F 39.3 °F 26.6 °F 53% 30.00 in 10.0 mi South 5.8 mph - N/A   Clear
9:55 PM 42.8 °F 38.6 °F 24.8 °F 49% 30.00 in 10.0 mi South 6.9 mph - N/A   Scattered Clouds
10:15 PM 42.8 °F 38.0 °F 26.6 °F 53% 29.99 in 10.0 mi South 8.1 mph - N/A   Scattered Clouds
10:35 PM 41.0 °F 36.4 °F 26.6 °F 57% 29.99 in 10.0 mi South 6.9 mph - N/A   Clear
10:55 PM 41.0 °F 36.4 °F 26.6 °F 57% 29.97 in 10.0 mi South 6.9 mph - N/A   Clear
11:15 PM 41.0 °F 35.8 °F 26.6 °F 57% 29.97 in 10.0 mi South 8.1 mph - N/A   Clear
11:35 PM 41.0 °F 37.1 °F 26.6 °F 57% 29.96 in 10.0 mi South 5.8 mph - N/A   Clear
11:55 PM 41.0 °F 38.0 °F 26.6 °F 57% 29.95 in 10.0 mi SSE 4.6 mph - N/A   Clear